Lid_Strength_Index
9 12 14 12 11 10 11 12 12 11 9 10 11 11 10 9 8 7 6 6 5 5 5 4 3 2 3 2 2 2 2 2 2 3 3 3 3 4 3 1 1 0 0 1
11 14 10 9 9 10 11 13 13 11 9 10 11 11 10 9 9 8 8 6 5 4 4 4 4 4 3 3 2 2 2 2 2 2 2 3 3 3 2 1 1 0 0 1
13 11 8 10 11 11 12 13 12 12 10 10 11 12 11 10 9 8 7 7 6 5 5 4 4 3 3 3 3 2 2 2 2 2 2 2 2 2 2 2 2 1 0 1
11 9 9 10 11 10 13 9 10 11 12 16 11 17 13 11 10 9 8 7 7 6 6 4 4 4 3 3 2 2 2 2 2 1 2 3 3 4 3 2 1 1 1 1
12 11 11 11 10 8 11 8 10 10 12 13 13 15 14 11 11 10 9 8 7 6 6 5 5 4 3 3 3 2 2 2 2 2 2 2 3 3 3 2 2 2 2 1
11 7 8 8 7 7 7 9 10 10 12 16 14 13 14 13 11 10 8 7 7 6 5 5 5 4 4 4 4 3 2 2 2 2 2 2 3 3 3 3 3 3 3 2
10 9 7 7 10 8 9 12 18 19 19 18 12 13 13 10 8 8 8 7 6 6 6 5 5 4 4 5 5 4 3 3 2 2 2 2 3 2 3 3 3 3 4 3
14 15 9 7 9 11 11 13 17 22 20 17 12 15 13 9 7 7 6 6 6 6 6 6 5 4 4 3 3 3 3 3 3 2 2 2 2 2 2 2 2 3 3 3
13 13 7 7 7 8 11 13 10 15 15 18 16 12 9 8 8 8 8 7 7 7 6 5 5 5 5 5 4 4 3 3 3 3 3 2 2 2 2 3 2 3 2 2
10 15 9 7 7 7 10 9 15 15 20 21 15 14 15 12 11 9 8 8 7 6 6 5 5 5 4 4 4 3 3 3 3 3 2 2 2 2 2 2 3 2 1 1
9 12 12 9 11 11 11 13 13 14 16 20 20 17 11 11 10 9 8 8 7 6 6 5 5 4 5 4 4 3 3 3 3 2 2 2 2 2 2 2 2 1 1 2
10 13 16 13 8 7 10 13 13 17 19 16 18 16 9 9 9 8 8 7 7 7 6 7 7 5 5 4 4 3 3 3 3 2 2 2 2 2 2 2 2 2 2 2
10 14 17 15 12 10 12 10 10 12 13 16 18 16 9 8 8 7 8 8 7 6 6 6 7 5 5 4 4 4 3 3 3 2 3 2 3 3 3 3 3 2 3 2
8 13 15 18 15 12 13 11 10 12 16 15 14 12 10 10 8 8 8 7 7 7 6 6 5 5 4 4 4 3 3 3 2 2 3 3 3 3 3 3 3 3 2 2
10 15 13 12 11 11 11 11 10 11 11 14 12 11 11 9 9 7 7 7 8 7 7 7 5 5 5 4 4 3 3 3 2 3 3 3 2 2 3 3 3 2 2 2
10 14 13 15 12 11 12 11 10 10 11 11 12 12 8 7 7 7 8 8 8 8 7 7 5 5 5 4 4 4 3 3 2 3 3 2 2 3 3 2 2 2 2 2
11 13 15 16 12 12 15 11 11 11 10 11 14 11 8 8 8 7 7 8 7 6 6 6 5 5 4 4 4 4 3 3 3 3 3 2 2 2 2 2 2 2 2 2
12 13 14 16 15 20 12 9 10 11 10 10 10 10 8 8 7 6 5 7 6 6 5 6 5 5 4 3 3 3 3 3 3 3 3 2 2 3 2 3 2 2 2 3
10 12 15 17 18 14 12 11 11 12 13 9 10 9 8 7 7 7 6 6 6 5 5 5 4 4 4 5 3 3 3 3 3 3 3 2 2 3 2 2 2 2 3 3
10 10 14 16 19 20 14 10 8 8 16 9 9 9 9 8 12 10 6 6 6 5 4 4 4 4 4 5 3 3 4 3 3 3 3 2 2 2 2 2 2 2 2 2
14 14 16 16 17 15 10 9 7 16 15 8 8 8 8 9 9 7 6 6 6 6 4 4 4 4 4 3 3 3 3 4 3 2 2 2 2 2 2 2 2 2 2 2
15 16 16 16 17 19 8 9 13 10 8 7 7 7 7 7 7 7 6 7 7 6 4 4 4 4 3 3 3 4 4 2 2 2 2 2 2 2 2 2 2 2 2 3
15 13 14 14 14 9 7 8 7 7 8 7 7 7 6 7 7 7 7 6 7 6 4 4 4 4 3 3 3 4 3 2 2 2 3 2 2 2 2 2 3 3 2 3
10 8 12 12 10 9 8 6 6 7 8 7 7 7 6 7 7 7 6 5 5 5 4 4 4 5 4 3 3 3 2 2 2 3 3 2 2 2 2 2 2 3 3 3
9 9 11 11 9 8 7 7 7 8 7 7 6 6 6 6 6 5 5 5 5 5 4 4 4 4 4 3 3 2 2 2 3 3 3 3 2 3 5 7 6 3 4 3
9 10 12 13 8 9 9 8 8 8 8 7 7 6 5 5 5 5 5 4 4 4 4 4 4 4 3 3 3 2 2 2 3 3 3 3 3 3 4 5 6 13 12 12